Content
SEND FEEDBACK

Daily
Averages
Monthly
Summary
China

WUHAN, CHINA


Home > Asia > China
Elevation: 75 feet     Latitude: 30 37N     Longitude: 114 08E

WEATHER
 
SELECT A DAY
Number of Records: 141,518;   Date Range: 1/29/00 - 10/22/14
 
SHARE

PRINT THIS DATA

[ ← Previous Day ]
WEATHER ALMANAC - MAY 25, 2013
[ Next Day → ]
[ °C ]   °F
Weather ElementAverageHighLow
Temperature77.5 °F82.4 °F (12:00 pm)71.6 °F (11:00 pm)
Dewpoint70.1 °F75 °F (11:00 am)66.2 °F (4:00 am)
Humidity77.5 %96 % (11:00 pm)66 % (12:00 pm)
Barometer29.70 in29.77 in (1:00 am)29.59 in (6:00 pm)
Wind Speed9 mph17.9 mph (4:00 pm)
Weather ElementAverage
Visibility2.7 mi
Wind DirectionESE (97 °)

Weather ElementTotal
Precipitation---
Cooling Degree Days12 (Base 65)
Growing Degree Days27 (Base 50)
Averaged from 30 records on May 25, 2013
WEATHER CONDITIONS BREAKOUT
WIND DIRECTION BREAKOUT
WEATHER BY HOUR - MAY 25, 2013
[ °C ]   °F
Local TimeTemperatureDewpointHumidityBarometerVisibilityWind DirectionWind SpeedGust SpeedPrecipitationEventsConditions
1:00 AM78.8 °F68.0 °F69 %29.77 in1.9 miEast (80°)8.9 mphHaze
2:00 AM77.0 °F74.0 °F88 %29.74 in7.0 miNE (40°)4.5 mphMostly Cloudy
2:00 AM77.0 °F68.0 °F74 %29.74 in2.5 miNE (50°)6.7 mphHaze
3:00 AM77.0 °F68.0 °F74 %29.74 in2.5 miEast (80°)6.7 mphHaze
4:00 AM77.0 °F66.2 °F69 %29.74 in1.9 miEast (100°)8.9 mphHaze
5:00 AM77.0 °F72.0 °F81 %29.73 in7.0 miENE (70°)4.5 mphOvercast
5:00 AM77.0 °F68.0 °F74 %29.74 in1.9 miEast (90°)8.9 mphHaze
6:00 AM77.0 °F68.0 °F74 %29.74 in1.9 miEast (90°)6.7 mphHaze
7:00 AM77.0 °F68.0 °F74 %29.77 in1.9 miEast (90°)6.7 mphRainLight Rain
8:00 AM77.0 °F74.0 °F90 %29.75 in4.0 miSSE (160°)2.2 mphRainLight Rain
8:00 AM77.0 °F69.8 °F78 %29.77 in1.4 miEast (80°)8.9 mphRainLight Rain
9:00 AM77.0 °F69.8 °F78 %29.77 in1.4 miEast (80°)8.9 mphMist
10:00 AM77.0 °F69.8 °F78 %29.77 in1.2 miENE (70°)8.9 mphMist
11:00 AM81.0 °F75.0 °F76 %29.74 in6.0 miSE (140°)4.5 mphRainLight Rain
11:00 AM78.8 °F71.6 °F78 %29.74 in0.9 miEast (100°)8.9 mphPartly Cloudy
12:00 PM82.4 °F69.8 °F66 %29.74 in0.9 miESE (110°)11.2 mphHaze
1:00 PM80.6 °F69.8 °F70 %29.71 in1.1 miESE (110°)11.2 mphHaze
2:00 PM82.0 °F73.0 °F67 %29.68 in6.0 miESE (110°)6.7 mphClear
2:00 PM80.6 °F69.8 °F70 %29.71 in1.1 miEast (100°)15.7 mphHaze
3:00 PM80.6 °F69.8 °F70 %29.68 in1.6 miEast (90°)13.4 mphHaze
4:00 PM80.6 °F69.8 °F70 %29.62 in1.8 miEast (80°)17.9 mphHaze
5:00 PM80.6 °F69.8 °F70 %29.62 in1.8 miEast (80°)15.7 mphHaze
6:00 PM78.8 °F68.0 °F69 %29.59 in1.9 miEast (90°)15.7 mphHaze
7:00 PM77.0 °F69.8 °F78 %29.59 in1.4 miEast (80°)13.4 mphRainLight Rain
8:00 PM75.0 °F74.0 °F95 %29.62 in7.0 miSE (140°)4.5 mphRainLight Rain
8:00 PM75.2 °F69.8 °F83 %29.65 in1.0 miESE (110°)11.2 mphRainRain
9:00 PM73.4 °F69.8 °F88 %29.62 in1.2 miESE (110°)11.2 mphRainLight Rain
10:00 PM73.4 °F68.0 °F83 %29.62 in1.9 miESE (120°)8.9 mphRainLight Rain
11:00 PM72.0 °F71.0 °F96 %29.61 in7.0 miSE (140°)4.5 mphRain-ThunderstormThunderstorms and Rain
11:00 PM71.6 °F69.8 °F94 %29.62 in1.4 miESE (120°)4.5 mphRainLight Rain
Hourly data recorded from ZHHH, located miles away from Wuhan, China







STORIES FROM OUR PARTNERS